STARLINK-36627, 67635

Orbit data source: Space-Track

STARLINK-36627, 67635 is a payload satellite owned by SpaceX/Seattle (US) in LEO that was launched on Fri, 30 Jan 2026 UTC via an FALCON 9 launch vehicle from the Air Force Eastern Test Range (AFETR). Payload-class satellites include a variety of spacecraft equipped with specific instruments for various scientific and technological missions. These include communications satellites like Starlink; space stations such as the ISS; scientific satellites like the Hubble; Earth observation satellites from companies like Planet Labs, Umbra, and HawkEye 360; GPS; miniature CubeSats for education and research; and military/defense satellites.

Loading next visibility...
Identifier
67635, 2026-020U
Orbit
LEO
Country
Flag of USUS
Related business
Manufacturer
SpaceX/Seattle
Mission
Operational Commercial Communications
Bus & Motor
STARLINK V2MO, Unknown motor
Mass
575 kg wet, ~530 kg dry
Launch date (UTC)
2026-01-30 (5 months ago)
Launch vehicle
FALCON 9
Launch site
Air Force Eastern Test Range (AFETR)
Object type
Payload
Rocket body
Debris
Shape & HBR
Box + 2 Pan, 17.7 m
Radar Cross Section
36.964 m², Large (>1 m²)

Expand to show TLE details & history
Last TLE update: 1 day ago

TLE from 1 day ago
0 STARLINK-36627
1 67635U 26020U   26170.61806314  .00024102  00000-0  88227-3 0  9991
2 67635  43.0002 284.0218 0001200 281.6423  78.4294 15.27588781 21708
Epoch: 2026-06-19T14:50Z
TLE epoch observation values (Epoch: 2026-06-19T14:50:00.655Z)
Latitude
-0.00001°
Longitude
153.67461°
Altitude
482.633 km
Speed
7.626 km/s
True Right ascension
18h 56m 05s
True Declination
0° 00' 00"
Sunlit
Object was in full shadow at epoch
Visualization orbit readout
Latitude
Unknown
Longitude
Unknown
Altitude
Unknown
Speed
Unknown
Apparent Right ascension
Unknown
Apparent Declination
Unknown
Sunlit
N/A
Visualization observer readout
Local Sidereal Time
07:21:34
Azimuth
Unknown
Elevation
Unknown
Doppler factor
Unknown
Orbital elements
Apogee altitude
485.792 km
Perigee altitude
484.144 km
Semi-major axis
6,863.105 km
Eccentricity
0.00012
Inclination
43.0002°
RAAN
284.0218°
Arg. of periapsis
281.6423°
True anomaly
78.44287°
Mean anomaly
78.4294°
Eccentric anomaly
78.43614°
Mean motion
3.81735 °/min
Orbital period
94.31 mins
BSTAR
0.00088227
Loading maneuver chart data...
Computing Atmospheric mass density...
Loading historical data...
Loading historical data...
Loading historical data...
Loading historical data...
Loading historical data...
Loading historical data...
Loading historical data...

Documentation

Showing up to 5 results
|